Location: Napoli
(40.8639°N, 14.2562°E)
Time: 15:08:22
(UTC+02:00)

ISS - Pass Details

Date: 22 May 2025
Orbit: 415 x 417 km, 51.6° (Epoch: 15 June)

Event Time Altitude Azimuth Distance (km) Brightness Sun altitude
Rises 23:06:48 0° 304° (NW) 2,358 1.1 -23.2°
Reaches altitude 10° 23:08:54 10° 301° (WNW) 1,491 -0.2 -23.4°
Enters shadow 23:10:58 34° 290° (WNW) 704 -2.3 -23.6°
